TimeEDT,TemperatureF,Dew PointF,Humidity,Sea Level PressureIn,VisibilityMPH,Wind Direction,Wind SpeedMPH,Gust SpeedMPH,PrecipitationIn,Events,Conditions,WindDirDegrees,DateUTC
12:15 AM,44.6,32.0,61,29.95,10.0,West,8.1,-,0.00,,Clear,280,2012-11-02 04:15:00
12:35 AM,44.6,32.0,61,29.95,10.0,West,8.1,-,0.00,,Clear,280,2012-11-02 04:35:00
12:55 AM,46.4,30.2,53,29.95,10.0,West,8.1,-,0.00,,Clear,280,2012-11-02 04:55:00
1:15 AM,46.4,30.2,53,29.95,10.0,West,4.6,-,0.00,,Clear,280,2012-11-02 05:15:00
1:35 AM,44.6,30.2,57,29.94,10.0,West,8.1,-,0.00,,Clear,280,2012-11-02 05:35:00
1:55 AM,44.6,30.2,57,29.95,10.0,WNW,8.1,-,0.00,,Clear,290,2012-11-02 05:55:00
2:15 AM,46.4,28.4,50,29.95,10.0,WNW,9.2,-,0.00,,Clear,290,2012-11-02 06:15:00
2:35 AM,46.4,28.4,50,29.95,10.0,West,9.2,-,0.00,,Clear,280,2012-11-02 06:35:00
2:55 AM,46.4,28.4,50,29.95,10.0,WNW,8.1,-,0.00,,Clear,300,2012-11-02 06:55:00
3:15 AM,44.6,28.4,53,29.95,10.0,WNW,3.5,-,0.00,,Clear,290,2012-11-02 07:15:00
3:35 AM,44.6,28.4,53,29.96,10.0,WNW,5.8,-,0.00,,Clear,290,2012-11-02 07:35:00
3:55 AM,42.8,30.2,61,29.95,9.0,Calm,Calm,-,0.00,,Clear,0,2012-11-02 07:55:00
4:15 AM,42.8,30.2,61,29.96,10.0,Calm,Calm,-,0.00,,Clear,0,2012-11-02 08:15:00
4:35 AM,41.0,30.2,65,29.96,10.0,WNW,6.9,-,0.00,,Clear,290,2012-11-02 08:35:00
4:55 AM,41.0,30.2,65,29.97,10.0,Calm,Calm,-,0.00,,Clear,0,2012-11-02 08:55:00
5:15 AM,39.2,30.2,70,29.97,10.0,Calm,Calm,-,0.00,,Clear,0,2012-11-02 09:15:00
5:35 AM,39.2,30.2,70,29.97,8.0,Calm,Calm,-,0.00,,Clear,0,2012-11-02 09:35:00
5:55 AM,39.2,32.0,75,29.98,10.0,Calm,Calm,-,0.00,,Clear,0,2012-11-02 09:55:00
6:15 AM,39.2,30.2,70,29.98,10.0,Calm,Calm,-,0.00,,Clear,0,2012-11-02 10:15:00
6:35 AM,39.2,30.2,70,29.98,10.0,Calm,Calm,-,0.00,,Clear,0,2012-11-02 10:35:00
6:55 AM,39.2,30.2,70,29.98,10.0,Calm,Calm,-,0.00,,Clear,0,2012-11-02 10:55:00
7:15 AM,39.2,32.0,75,29.99,10.0,Calm,Calm,-,0.00,,Clear,0,2012-11-02 11:15:00
7:35 AM,39.2,32.0,75,30.00,10.0,Calm,Calm,-,0.00,,Clear,0,2012-11-02 11:35:00
7:55 AM,41.0,32.0,70,30.01,10.0,West,8.1,-,0.00,,Clear,280,2012-11-02 11:55:00
8:15 AM,44.6,32.0,61,30.01,10.0,West,8.1,-,0.00,,Clear,280,2012-11-02 12:15:00
8:35 AM,46.4,32.0,57,30.01,10.0,Calm,Calm,-,0.00,,Clear,0,2012-11-02 12:35:00
8:55 AM,51.8,33.8,50,30.01,10.0,West,5.8,-,0.00,,Clear,280,2012-11-02 12:55:00
9:15 AM,53.6,32.0,44,30.01,10.0,West,3.5,-,0.00,,Clear,280,2012-11-02 13:15:00
9:35 AM,57.2,32.0,38,30.02,10.0,West,5.8,-,0.00,,Clear,270,2012-11-02 13:35:00
9:55 AM,60.8,32.0,34,30.01,10.0,West,5.8,-,0.00,,Clear,260,2012-11-02 13:55:00
10:15 AM,62.6,32.0,32,30.01,10.0,West,3.5,-,0.00,,Clear,260,2012-11-02 14:15:00
10:35 AM,64.4,32.0,30,30.01,10.0,West,8.1,-,0.00,,Clear,270,2012-11-02 14:35:00
10:55 AM,66.2,32.0,28,30.01,10.0,West,12.7,-,0.00,,Clear,280,2012-11-02 14:55:00
11:15 AM,66.2,32.0,28,30.01,10.0,West,13.8,18.4,0.00,,Clear,280,2012-11-02 15:15:00
11:35 AM,66.2,32.0,28,30.01,10.0,West,11.5,18.4,0.00,,Clear,280,2012-11-02 15:35:00
11:55 AM,69.8,33.8,27,30.00,9.0,West,8.1,-,0.00,,Clear,260,2012-11-02 15:55:00
12:15 PM,71.6,33.8,25,29.99,10.0,WSW,11.5,16.1,0.00,,Clear,250,2012-11-02 16:15:00
12:35 PM,71.6,35.6,27,29.98,10.0,WSW,8.1,-,0.00,,Clear,240,2012-11-02 16:35:00
12:55 PM,73.4,35.6,25,29.96,10.0,SW,13.8,19.6,0.00,,Clear,230,2012-11-02 16:55:00
1:15 PM,73.4,35.6,25,29.94,10.0,WSW,15.0,19.6,0.00,,Clear,240,2012-11-02 17:15:00
1:35 PM,73.4,39.2,29,29.93,10.0,SSW,10.4,19.6,0.00,,Clear,210,2012-11-02 17:35:00
1:55 PM,73.4,41.0,31,29.92,10.0,SSW,9.2,17.3,0.00,,Clear,210,2012-11-02 17:55:00
2:15 PM,73.4,42.8,33,29.91,10.0,SSW,15.0,19.6,0.00,,Clear,200,2012-11-02 18:15:00
2:35 PM,73.4,44.6,36,29.90,10.0,SSW,13.8,19.6,0.00,,Clear,200,2012-11-02 18:35:00
2:55 PM,73.4,44.6,36,29.90,10.0,SSW,16.1,-,0.00,,Clear,200,2012-11-02 18:55:00
3:15 PM,73.4,44.6,36,29.89,10.0,SSW,15.0,20.7,0.00,,Clear,200,2012-11-02 19:15:00
3:35 PM,73.4,46.4,38,29.88,10.0,SSW,10.4,17.3,0.00,,Clear,200,2012-11-02 19:35:00
3:55 PM,73.4,46.4,38,29.88,10.0,SSW,11.5,23.0,0.00,,Clear,210,2012-11-02 19:55:00
4:15 PM,73.4,48.2,41,29.87,10.0,SSW,11.5,18.4,0.00,,Clear,200,2012-11-02 20:15:00
4:35 PM,71.6,48.2,43,29.87,10.0,SW,12.7,18.4,0.00,,Clear,220,2012-11-02 20:35:00
4:55 PM,71.6,48.2,43,29.87,10.0,SSW,13.8,18.4,0.00,,Clear,210,2012-11-02 20:55:00
5:15 PM,71.6,48.2,43,29.87,10.0,SSW,15.0,21.9,0.00,,Clear,210,2012-11-02 21:15:00
5:35 PM,69.8,50.0,49,29.88,10.0,SW,11.5,16.1,0.00,,Clear,220,2012-11-02 21:35:00
5:55 PM,69.8,51.8,53,29.88,10.0,SSW,9.2,-,0.00,,Clear,210,2012-11-02 21:55:00
6:15 PM,66.2,51.8,60,29.88,9.0,SSW,6.9,-,0.00,,Clear,210,2012-11-02 22:15:00
6:35 PM,64.4,51.8,64,29.89,10.0,SSW,5.8,-,0.00,,Clear,210,2012-11-02 22:35:00
6:55 PM,64.4,51.8,64,29.90,10.0,SSW,5.8,-,0.00,,Clear,210,2012-11-02 22:55:00
7:15 PM,62.6,53.6,72,29.90,10.0,SW,4.6,-,0.00,,Clear,220,2012-11-02 23:15:00
7:35 PM,62.6,53.6,72,29.91,10.0,SW,4.6,-,0.00,,Clear,220,2012-11-02 23:35:00
7:55 PM,62.6,53.6,72,29.92,10.0,Calm,Calm,-,0.00,,Clear,0,2012-11-02 23:55:00
8:35 PM,59.0,51.8,77,29.93,10.0,Calm,Calm,-,0.00,,Clear,0,2012-11-03 00:35:00
8:55 PM,57.2,51.8,82,29.93,10.0,Calm,Calm,-,0.00,,Clear,0,2012-11-03 00:55:00
9:15 PM,57.2,51.8,82,29.94,10.0,Calm,Calm,-,0.00,,Clear,0,2012-11-03 01:15:00
9:35 PM,59.0,50.0,72,29.94,10.0,Calm,Calm,-,0.00,,Clear,0,2012-11-03 01:35:00
9:55 PM,59.0,50.0,72,29.95,10.0,Calm,Calm,-,0.00,,Clear,0,2012-11-03 01:55:00
10:35 PM,57.2,48.2,72,29.95,10.0,Calm,Calm,-,0.00,,Clear,0,2012-11-03 02:35:00
10:55 PM,59.0,48.2,67,29.95,10.0,WSW,5.8,-,0.00,,Clear,240,2012-11-03 02:55:00
11:15 PM,59.0,46.4,63,29.95,10.0,WSW,4.6,-,0.00,,Clear,240,2012-11-03 03:15:00
11:35 PM,59.0,46.4,63,29.95,10.0,WSW,5.8,-,0.00,,Clear,240,2012-11-03 03:35:00
11:55 PM,60.8,46.4,59,29.95,10.0,WSW,3.5,-,0.00,,Clear,240,2012-11-03 03:55:00